Regional Weather Roundup
Issued by NWS

Home | Current Version | Previous Version | Text Only | Print | Product List | Glossary Off
Versions: 1 2 3 4 5 6 7 8 9 10 11 12 13 14 15 16 17 18 19 20 21 22 23 24 25 26 27 28 29 30 31 32 33 34 35 36 37 38 39 40 41 42 43 44 45 46 47 48 49 50

200
ASUS45 KBOU 211710
RWRCO

WEATHER ROUNDUP FOR COLORADO
NATIONAL WEATHER SERVICE DENVER/BOULDER CO
1000 AM MST SUN JAN 21 2018

NOTE: "FAIR" INDICATES FEW OR NO CLOUDS BELOW 12000 FEET WITH NO
SIGNIFICANT WEATHER AND/OR OBSTRUCTIONS TO VISIBILITY.

COZ001>005-013-030-031-211800-
...NORTHWEST COLORADO...

CITY           SKY/WX    TMP DP  RH WIND       PRES   REMARKS
CRAIG          LGT SNOW  22  17  81 N20G29    29.83R VSB 1   WCI   7
HAYDEN         LGT SNOW N/A N/A N/A SW10      29.83R
MEEKER         LGT SNOW  22  18  85 W10       29.87R VSB 3/4 WCI  11
RABBIT EARS PA SNOW       9   5  85 W9        29.68R VSB 1/4 WCI  -5
STEAMBOAT SPGS CLOUDY    19  17  90 CALM      29.81R VSB 1/2
WALDEN         CLOUDY    18   9  68 N17       29.77R WCI   2
$$

COZ006>008-011-211800-
...WEST CENTRAL VALLEYS...

CITY           SKY/WX    TMP DP  RH WIND       PRES   REMARKS
GRAND JUNCTION CLOUDY    28  27  96 NW7       29.93R WCI  21
MONTROSE       CLOUDY    27  19  72 W21G32    29.88R WCI  13
EAGLE          CLOUDY    25  16  68 SW15      29.79R WCI  13
RIFLE          CLOUDY    28  16  60 NW17G25   29.88R WCI  16
DELTA          FAIR      34  18  52 W25G35    29.83R WCI  21
NUCLA          CLOUDY    28  23  80 NW14G21   29.93R WCI  17
$$

COZ017>023-064>068-211800-
...SOUTHWEST COLORADO...

CITY           SKY/WX    TMP DP  RH WIND       PRES   REMARKS
DURANGO        PTSUNNY   24  22  91 SW12      29.78R WCI  13
CORTEZ         LGT SNOW  24  22  91 W8        29.92R FOG     WCI  15
PAGOSA SPRINGS PTSUNNY   24  20  83 S7        29.75R WCI  16
TELLURIDE      SNOW      16  13  87 W17       29.78R VSB 1/2 WCI   0
WOLF CREEK PAS LGT SNOW   9   5  85 SW7       29.68R WCI  -3
$$

COZ009-010-012-014-032>034-037-058>063-211800-
...CENTRAL COLORADO...

CITY           SKY/WX    TMP DP  RH WIND       PRES   REMARKS
ASPEN          LGT SNOW  19  13  77 N9        29.74R WCI   8
BUENA VISTA    SNOW      21  18  86 NE5       29.70R VSB 1/2 WCI  15
COPPER MTN     NOT AVBL
BERTHOUD PASS  LGT SNOW   0 -11  60 E18G36    29.62S VSB 3/4 WCI -22
COTTONWOOD PAS HVY SNOW  21  19  93 CALM      29.67R VSB<1/4
GUNNISON       PTSUNNY   24  16  71 SW15G21   29.70R WCI  11
KREMMLING      LGT SNOW  27  19  74 NW14G22   29.73R WCI  15
LEADVILLE      SNOW      16  12  84 NW5       29.63S VSB 1/2 WCI   9
MONARCH PASS   HVY SNOW   9   5  85 W25       29.70R VSB<1/4 WCI -13
SALIDA         CLOUDY    26  24  91 SE7       29.76R VSB 3/4 WCI  18
SUNLIGHT       SNOW       5   1  85 MISG      29.73R VSB 1/2
WILKERSON PASS CLOUDY     9   3  78 NE16G23   29.64R WCI  -9
$$

COZ069>075-211800-
...SAN LUIS VALLEY/SANGRE DE CRISTO MOUNTAINS...

CITY           SKY/WX    TMP DP  RH WIND       PRES   REMARKS
ALAMOSA        SNOW      24  21  88 W3        29.68R VSB 1/2
DEL NORTE      CLOUDY    25  10  52 W10       29.67R WCI  15
LA VETA PASS   SNOW      16  12  86 N7G17       N/A  VSB 1/4 WCI   6
SAGUACHE       CLOUDY    27  19  74 NE6       29.67S WCI  20
$$

COZ035-036-038>040-211800-
...NORTHERN COLORADO FRONT RANGE...

CITY           SKY/WX    TMP DP  RH WIND       PRES   REMARKS
DENVER INTL AP SNOW      26  22  84 N22       29.83R VSB 1/2 WCI  12
DMNS CITY PARK NOT AVBL
AURORA         LGT SNOW  25  25 100 N12       29.81S VSB 3/4 WCI  15
FRONT RANGE AP SNOW      28  27  93 N15       29.81S VSB 1/2 WCI  17
ERIE MUNI ARPT SNOW      28  26  94 N16       29.91R VSB 1/2 WCI  15
BOULDER MUN AP LGT SNOW  27  27 100 N15       29.86R VSB 3/4 WCI  15
CENTENNIAL     SNOW      24  23  96 N14       29.80R VSB 1/2 WCI  12
BROOMFIELD     SNOW      27  25  93 N16       29.84R VSB 1/2 WCI  14
FORT COLLINS   LGT SNOW  25  24  96 N20       29.89R VSB 1   WCI  11
LONGMONT       LGT SNOW  30  26  86 N15       29.89R VSB 3/4 WCI  19
$$

COZ041-046-047-076>085-087-088-211800-
...PIKES PEAK/PALMER DIVIDE AND SOUTHERN FOOTHILLS...

CITY           SKY/WX    TMP DP  RH WIND       PRES   REMARKS
COLO. SPRINGS  LGT SNOW  26  20  77 N15       29.75R VSB 1   WCI  14
A. F. ACADEMY  LGT SNOW  23  19  85 N15       29.73R VSB 7/8 WCI  10
SCHRIEVER AFB  LGT SNOW  24  20  83 N16       29.74R WCI  11
CHEYENNE MTN   LGT SNOW  22  20  93 N20       29.64R VSB 5/8 WCI   6
ELLICOTT       MIX PCPN N/A N/A N/A N23       29.71R
FALCON         LGT SNOW  23  19  86 N15G21    29.73R WCI  10
FORT CARSON    NOT AVBL
LIMON          LGT SNOW  25  23  92 N22G30    29.73F FOG     WCI  10
MONUMENT HILL  LGT SNOW N/A N/A N/A N17G23    29.74F VSB 3/4
CANON CITY     SNOW      30  30 100 MISG      29.73R VSB 1/2
WALSENBURG     CLOUDY    28  28 100 N13       29.73R VSB 1/4 WCI  18
TRINIDAD       LGT SNOW  29  26  89 N10       29.71R VSB 1   WCI  20
$$

COZ042>045-048>051-090-091-211800-
...NORTHEAST COLORADO...

CITY           SKY/WX    TMP DP  RH WIND       PRES   REMARKS
GREELEY ARPT   LGT SNOW  27  24  89 N17       29.89R VSB 3/4 WCI  14
AKRON          LGT SNOW  27  26  96 NE17      29.80R VSB 1   WCI  14
BURLINGTON     FRZ RAIN  30  29  96 N16       29.73S FOG     WCI  19
WRAY           MIX PCPN  32  30  93 N22G31    29.78F WCI  19
YUMA           LGT SNOW  28  27  93 N21G28    29.79S WCI  15
STERLING       LGT SNOW  30  28  93 NE17G23   29.82S WCI  18
HOLYOKE        LGT SNOW  34  30  86 N20G28    29.82R WCI  22
FORT MORGAN    SNOW      28  26  91 N13       29.85R VSB 1/2 WCI  18
$$

COZ086-089-092>099-211800-
...SOUTHEAST COLORADO...

CITY           SKY/WX    TMP DP  RH WIND       PRES   REMARKS
PUEBLO         LGT SNOW  31  26  82 N17       29.76S WCI  19
LA JUNTA       FLURRIES  32  26  78 N13       29.74S WCI  22
LAMAR          CLOUDY    33  26  75 N8        29.70F WCI  26
SPRINGFIELD      N/A     29  27  92 N10       29.68F WCI  20
$$




USA.gov is the U.S. government's official web portal to all federal, state and local government web resources and services.